Temp
7 8 8 8 8 7 8 7 8 9 11 12 12 11 10 9 10 9 12 17 17 18 17 18 19 20 20 22 23 23 24 25 25 25 26 26 27 27 28 28 28 29 29 29 29
8 8 8 8 8 7 7 7 8 11 12 12 13 12 10 9 10 11 18 18 17 17 17 19 20 20 22 22 23 24 24 25 25 25 26 26 26 26 27 28 28 28 29 29 29
8 8 8 8 8 8 7 8 9 13 13 13 13 12 11 10 13 20 19 19 18 17 17 17 18 20 21 21 22 23 23 24 25 25 26 26 25 26 26 26 28 27 28 29 29
8 8 8 8 8 8 8 8 8 12 13 13 13 13 12 11 20 19 19 19 18 18 17 18 19 20 21 21 22 22 22 23 25 25 24 25 25 24 26 26 27 27 28 28 29
8 8 8 8 8 8 8 8 8 12 14 13 13 13 12 15 19 19 19 19 18 18 18 19 20 20 21 21 21 21 22 22 23 24 23 23 24 24 25 26 26 27 28 28 28
8 8 8 8 8 8 8 8 8 11 14 14 13 12 12 18 19 19 19 18 18 17 18 18 20 20 21 21 21 21 21 22 22 24 23 23 24 25 26 26 26 26 27 27 26
8 8 8 7 8 8 8 8 9 11 14 13 12 11 13 19 19 19 18 19 19 18 20 19 19 21 20 20 20 20 20 22 22 23 23 24 23 24 23 25 25 26 26 26 26
6 7 7 7 8 7 9 11 12 13 14 13 11 10 16 19 19 19 20 20 19 18 18 19 19 20 20 20 19 20 20 21 22 22 23 23 23 23 22 23 24 24 25 25 26
6 6 7 8 9 12 13 14 14 14 14 12 11 12 19 19 19 21 21 21 20 19 19 19 20 19 20 20 20 19 20 20 21 21 22 22 22 22 22 22 22 23 24 24 25
6 7 8 9 11 14 15 15 14 13 12 11 12 14 19 20 19 20 21 20 21 21 20 20 19 20 19 20 19 19 19 20 20 21 21 22 21 22 21 21 21 22 22 23 24
6 8 10 12 13 14 14 14 16 16 13 17 17 17 18 18 19 21 21 21 20 20 20 18 20 20 20 19 19 19 19 19 20 20 20 21 21 21 22 22 21 22 21 22 22
7 8 10 13 15 15 14 16 15 15 16 16 16 16 17 18 19 20 20 21 20 19 18 19 19 20 19 19 18 18 19 19 20 20 20 20 20 21 22 21 22 22 21 21 21
6 9 10 14 15 15 15 14 14 14 16 17 17 18 19 18 19 20 21 20 20 19 19 19 20 19 19 19 19 19 19 18 18 19 19 19 21 20 21 21 21 21 21 20 20
6 10 13 15 14 14 15 15 15 15 17 19 20 20 19 19 20 20 21 21 20 19 18 19 19 19 19 19 19 19 18 18 18 18 18 18 18 20 20 20 20 21 22 21 20
9 12 14 14 14 15 15 15 15 15 17 20 20 20 20 20 20 21 20 20 20 20 19 20 19 19 19 19 19 19 18 18 17 18 17 19 17 19 19 20 21 21 21 21 20
13 14 15 15 14 15 15 15 15 17 17 19 20 19 19 19 20 20 20 20 19 19 19 19 19 19 19 18 18 17 18 18 15 16 16 17 17 19 20 20 20 21 21 21 20
14 15 15 15 15 15 15 15 17 17 18 18 18 18 18 18 18 18 18 18 19 18 18 18 18 18 18 18 17 18 17 16 17 17 18 16 16 18 19 20 20 20 21 21 20
15 15 15 14 15 15 14 17 16 17 17 18 18 18 17 18 18 18 17 17 17 17 18 18 18 18 18 18 18 17 17 17 15 16 17 17 17 19 19 19 19 19 19 19 20
16 15 15 14 15 14 16 16 16 17 17 17 17 17 17 17 17 17 17 17 18 17 17 16 16 17 17 17 17 16 16 16 15 16 15 17 18 18 20 19 19 19 19 19 19
14 14 14 15 14 14 15 15 16 17 17 17 16 17 16 17 16 16 16 17 17 17 17 16 15 17 17 17 16 16 16 15 14 14 14 17 17 18 19 19 18 19 18 18 18
12 16 14 15 14 15 15 15 15 17 17 16 16 16 16 16 16 16 16 17 17 17 16 16 15 16 15 16 16 15 15 14 15 14 14 15 17 18 18 19 18 18 18 18 17
10 16 14 15 15 10 14 14 13 16 17 17 16 16 16 16 15 16 16 17 17 17 16 16 14 14 16 17 16 16 16 15 14 14 14 14 16 19 19 18 17 18 18 18 17
10 11 13 14 14 13 13 13 14 15 15 15 15 16 15 15 15 15 16 16 16 16 15 14 14 14 15 14 13 14 15 15 15 14 13 14 16 18 18 18 18 17 17 16 16
10 14 13 11 9 11 11 12 13 15 15 14 14 14 14 14 15 15 14 15 15 15 15 14 14 13 14 15 15 14 14 15 15 12 14 15 16 17 17 17 17 17 16 16 16
8 9 8 13 11 9 9 10 12 13 13 13 13 12 12 12 12 13 14 14 14 14 14 14 13 13 14 14 14 15 15 15 15 15 14 15 15 17 17 17 17 16 16 15 16
9 10 8 9 8 9 9 11 11 11 11 12 12 11 10 11 12 11 12 12 12 13 13 13 12 14 13 14 14 13 14 15 15 15 15 15 15 17 17 17 16 16 16 15 16
4 5 7 9 9 9 11 11 11 9 11 11 10 9 10 11 11 11 11 11 12 11 12 12 12 12 12 14 13 13 15 15 16 16 16 15 17 18 17 17 16 16 16 15 16
Height
820 817 814 811 808 805 803 800 798 796 795 793 792 790 788 785 782 781 777 772 771 770 772 773 774 774 774 774 773 774 783 782 778 780 775 765 767 761 759 761 760 757 756 755 752
819 816 813 810 807 804 801 798 795 794 792 791 789 787 785 783 781 777 772 770 771 772 773 773 772 772 773 774 773 773 776 774 768 766 769 766 766 766 764 760 760 759 755 754 751
817 814 811 808 805 802 799 796 793 791 791 789 787 785 783 782 781 772 771 771 771 772 772 774 774 774 775 774 772 769 771 770 766 760 758 757 763 763 765 762 758 761 755 750 748
816 813 809 806 802 799 796 793 791 789 788 788 786 784 782 782 780 772 772 772 772 772 773 774 773 774 775 775 771 775 768 765 763 759 760 761 759 766 763 756 756 755 754 751 746
814 811 807 804 800 796 793 790 787 786 786 786 785 783 783 781 774 772 772 772 773 773 773 773 772 773 774 773 773 775 769 767 763 762 760 759 760 762 760 755 754 753 751 749 744
812 809 805 801 797 794 790 788 785 784 784 784 784 783 784 779 771 771 772 772 772 773 773 773 771 771 771 771 773 771 769 767 764 761 760 760 754 758 753 752 752 752 748 748 743
810 806 802 797 794 790 787 785 783 782 782 783 783 783 784 773 770 770 771 771 771 771 771 771 771 771 771 771 770 770 773 767 764 760 758 753 758 754 755 750 751 748 746 746 744
807 803 798 794 791 787 784 781 780 780 780 782 783 784 776 768 768 769 769 769 769 769 770 770 771 771 771 771 772 773 775 772 762 760 756 757 757 757 755 755 750 752 748 744 743
804 800 795 791 787 783 780 779 778 778 779 781 784 784 772 768 768 767 767 767 767 768 769 770 770 773 772 774 775 776 774 774 767 762 759 758 758 756 754 754 752 748 748 744 742
801 796 792 788 784 782 780 780 780 781 783 784 784 784 770 769 767 766 766 766 766 768 769 770 772 772 776 774 778 777 776 773 770 764 759 758 760 754 753 755 753 748 746 746 741
797 793 789 785 782 781 781 781 784 783 783 777 776 775 771 769 767 765 765 766 766 767 772 774 771 773 771 774 773 775 776 774 767 761 763 758 757 754 749 747 748 747 745 740 740
795 790 786 784 782 781 781 782 785 786 781 774 775 774 771 771 771 764 764 768 768 773 774 775 773 768 770 772 775 775 774 770 766 763 764 756 753 745 739 739 739 740 740 739 739
791 787 784 782 782 783 783 784 783 782 782 773 770 769 768 770 769 764 762 764 767 772 773 774 770 768 772 771 772 771 772 773 773 767 760 758 741 742 736 735 735 735 737 738 739
788 785 782 781 785 783 784 783 781 781 780 773 768 765 766 766 767 759 760 762 767 770 773 771 768 768 769 769 766 771 768 770 772 772 770 765 755 740 738 736 737 736 734 735 735
785 782 782 781 783 784 785 782 781 782 789 770 766 762 762 765 764 759 758 759 764 767 770 767 766 768 768 764 764 768 768 770 771 768 771 758 768 741 742 737 735 734 734 733 732
784 783 782 783 783 784 782 780 781 785 786 771 765 768 766 765 763 759 759 758 760 764 765 762 763 763 762 766 765 767 768 766 776 771 767 757 762 742 737 733 733 728 731 731 732
785 784 783 783 784 782 780 781 784 784 772 774 772 769 771 769 766 765 766 764 764 770 767 763 762 762 763 766 768 766 770 772 767 765 754 761 760 739 733 731 731 730 727 727 729
787 786 785 785 783 782 781 782 786 776 776 769 770 770 771 769 768 767 767 766 765 766 765 765 765 762 760 762 763 767 769 771 775 765 754 759 749 732 730 728 728 728 730 727 726
785 786 785 785 783 781 781 786 780 777 773 774 771 774 772 769 770 769 766 763 760 762 765 768 769 761 761 761 763 769 772 770 771 766 770 745 734 732 721 726 727 727 727 727 726
784 783 785 784 782 782 782 784 779 774 772 773 777 771 774 771 773 770 766 760 760 760 760 765 771 762 758 761 764 763 765 774 774 773 763 737 736 729 725 724 727 726 724 724 722
783 782 783 781 782 783 786 784 778 771 773 775 772 772 769 769 769 769 764 760 758 758 763 765 770 764 766 761 757 765 764 769 768 768 761 751 727 722 723 721 726 725 724 721 718
787 783 783 780 787 799 788 786 783 774 770 770 770 767 768 767 768 765 763 757 755 756 762 761 766 763 757 749 753 754 756 758 765 766 762 756 732 715 718 720 723 720 717 717 716
794 790 784 781 787 791 791 787 782 776 772 771 770 767 768 768 770 763 759 756 757 757 759 764 763 760 753 760 761 758 755 756 759 763 757 752 722 717 714 716 715 715 714 714 712
796 788 788 791 802 798 799 788 782 774 773 775 771 769 771 769 766 762 762 758 759 759 759 761 758 759 753 747 752 753 753 753 753 759 743 733 721 717 713 713 712 712 710 708 707
802 806 807 791 795 803 805 795 786 781 777 776 772 776 777 774 770 766 763 762 761 760 760 760 757 756 750 748 747 745 742 741 741 738 741 726 724 711 710 709 707 705 705 703 699
806 808 811 804 805 804 799 790 787 785 786 777 777 777 781 780 773 771 768 766 765 759 757 757 753 747 742 743 744 742 734 732 728 725 722 720 715 705 704 702 705 702 699 697 693
813 813 812 803 800 800 791 789 787 792 783 781 783 784 778 772 771 770 768 765 762 760 757 756 755 751 741 738 740 737 714 713 709 709 710 711 700 695 699 698 698 695 693 691 687
Wind_Speed
16 16 16 16 16 16 15 14 13 12 11 12 13 15 17 17 18 9 6 3 4 7 2 5 1 2 3 3 4 4 7 12 18 16 9 2 2 1 3 9 4 2 7 13 18
18 18 17 17 16 16 15 15 13 11 11 12 14 16 16 16 13 8 4 3 3 2 1 2 3 3 3 4 5 8 10 17 7 9 11 8 6 8 6 11 11 8 10 14 15
20 19 18 18 17 16 16 15 14 10 9 10 13 14 13 12 4 3 3 5 3 1 0 2 2 2 5 3 6 6 12 8 7 10 11 14 9 4 8 17 7 13 17 17 14
20 20 20 20 19 18 16 15 14 10 7 8 11 12 11 3 2 2 2 4 3 2 3 3 3 5 4 7 3 7 5 11 14 12 5 7 3 7 11 18 11 11 17 10 14
21 21 21 20 20 19 18 16 14 8 5 5 8 10 3 2 4 0 4 4 3 1 2 2 3 3 5 3 3 7 3 4 6 9 8 7 15 15 15 13 16 9 12 14 10
22 22 22 22 22 20 18 16 13 9 4 4 4 5 1 2 2 2 5 6 5 3 1 4 2 2 3 2 4 1 2 6 7 10 6 9 17 9 8 5 10 13 13 6 4
24 24 23 23 22 21 18 15 12 8 5 4 2 1 1 7 3 3 4 6 8 6 2 4 3 3 1 2 1 1 6 8 11 12 12 11 17 22 2 6 13 10 7 4 5
26 25 24 24 23 20 17 14 10 8 5 4 4 2 5 3 7 9 6 5 8 7 6 5 4 1 2 1 2 1 2 4 3 2 5 12 14 2 8 1 6 7 5 6 5
26 26 25 25 21 16 12 5 4 3 5 8 4 2 3 7 3 3 5 3 3 3 2 3 2 1 1 1 2 1 3 3 2 5 4 3 5 3 7 9 10 7 6 5 7
27 25 26 24 17 13 5 8 10 8 8 4 1 2 3 1 3 7 6 6 3 3 3 2 2 3 2 3 3 1 2 2 5 2 7 7 8 12 10 9 9 9 8 5 4
26 25 24 20 13 8 5 2 0 2 2 4 2 4 4 7 5 3 0 3 1 3 2 1 4 4 3 4 3 3 4 5 5 2 9 11 13 13 15 13 12 10 9 7 6
27 25 21 12 6 4 5 3 2 3 5 4 7 6 8 2 3 3 4 4 2 2 1 3 7 5 2 2 4 5 5 7 7 5 8 14 19 17 14 14 14 13 8 8 5
26 23 17 6 3 4 6 4 10 6 2 4 4 3 1 6 3 4 6 4 3 3 4 4 1 5 3 2 4 6 8 4 5 7 9 12 13 3 4 7 6 3 5 5 8
25 19 9 3 3 1 1 10 9 6 2 1 2 2 4 3 4 5 7 4 2 3 4 5 2 5 6 7 7 7 5 3 4 6 8 6 9 12 9 2 4 2 5 5 7
21 11 3 3 3 1 6 13 1 2 2 2 2 2 1 4 4 2 2 3 11 7 4 2 3 4 7 4 5 2 2 2 5 11 10 13 7 3 3 6 5 6 2 6 7
14 7 3 4 2 4 12 5 2 2 4 3 1 3 3 1 2 6 1 1 2 5 6 12 1 3 2 3 2 3 2 7 1 3 6 3 5 4 4 5 7 10 6 10 5
9 5 3 3 2 11 10 1 2 3 2 1 0 3 2 2 2 3 3 2 5 5 9 4 4 1 2 4 2 2 4 4 3 4 3 5 8 11 7 7 11 13 13 12 9
6 4 3 5 8 8 3 1 5 1 2 1 1 5 4 1 1 4 2 3 3 2 4 7 9 6 5 4 1 3 3 4 5 4 5 5 9 2 5 7 11 9 7 9 11
4 3 1 7 8 7 1 2 3 3 1 3 5 3 2 3 3 3 4 5 5 5 5 4 5 1 5 2 2 3 6 2 6 8 7 6 8 10 10 4 3 1 6 12 13
4 2 2 13 6 1 1 3 2 2 2 2 4 5 4 3 3 3 3 2 3 5 1 1 6 5 4 0 4 8 7 3 3 4 6 6 13 9 10 9 3 10 10 13 16
2 0 3 12 2 2 1 3 4 4 1 5 4 5 6 7 7 4 4 3 4 6 3 3 5 5 3 8 10 6 8 5 3 4 4 6 5 3 5 9 9 8 12 17 18
3 0 8 7 2 1 1 2 5 4 1 4 4 7 7 5 5 8 9 8 6 7 5 6 3 10 16 10 6 8 10 13 7 6 5 6 9 10 13 7 8 16 20 14 13
2 2 5 4 1 2 4 4 4 3 2 2 3 3 1 4 4 7 8 3 4 7 6 6 5 7 6 4 3 5 10 12 7 6 15 12 10 6 10 16 20 19 17 12 13
2 2 2 4 2 2 4 5 4 3 3 3 4 1 2 4 6 5 4 2 3 2 2 5 10 12 13 11 1 5 9 12 13 10 16 18 27 25 26 23 19 17 12 11 12
4 2 1 3 1 3 2 4 6 5 3 3 1 5 3 4 6 9 10 7 3 5 9 4 16 15 18 20 19 22 21 20 21 21 21 23 25 28 23 21 20 15 13 13 14
2 2 1 2 2 3 2 3 3 4 2 4 6 5 5 7 10 19 18 15 15 6 8 4 11 13 21 14 15 18 22 23 26 26 27 27 29 27 22 13 12 14 12 14 14
2 1 0 2 2 2 2 3 2 3 6 11 6 8 13 16 10 13 16 16 15 12 12 9 6 5 13 8 9 13 25 26 26 20 17 19 22 13 11 14 13 15 14 16 15
Wind_Direction
351 348 345 343 341 338 333 331 326 323 323 325 327 324 324 322 317 306 243 215 21 226 340 317 344 146 141 196 182 154 233 239 234 240 253 230 302 138 285 284 299 284 310 324 344
348 343 340 337 334 331 329 324 322 320 322 326 328 327 327 330 319 276 329 196 175 108 7 54 96 123 169 195 190 201 229 235 222 235 237 252 273 294 293 286 292 284 305 325 340
346 341 338 335 332 327 322 319 316 314 316 324 329 330 334 333 288 13 54 128 130 110 79 110 129 135 188 192 188 196 236 228 236 222 243 237 264 276 277 282 296 310 317 324 325
342 339 336 333 331 326 320 315 310 306 306 320 329 328 340 342 93 21 121 136 133 100 80 113 131 152 180 205 207 237 234 240 249 265 258 245 289 248 256 266 296 301 298 301 323
340 337 334 332 329 324 320 314 307 297 287 307 330 339 14 268 253 2 184 183 182 156 116 130 155 156 184 198 226 237 235 264 257 277 275 297 253 254 269 273 280 290 300 304 309
340 336 333 330 329 323 316 310 303 288 258 273 316 356 14 268 205 81 201 204 214 201 200 188 204 229 152 204 225 180 254 271 282 261 244 249 264 270 249 330 299 290 299 318 3
338 335 332 330 328 325 320 312 302 285 244 227 254 89 199 236 202 269 233 247 246 218 248 220 221 250 196 229 3 309 270 263 246 247 242 230 256 253 163 234 276 303 291 318 15
336 334 331 331 329 327 323 315 294 262 230 202 169 165 252 233 276 284 246 254 254 245 244 237 224 228 263 84 40 251 237 248 135 255 242 211 241 36 25 358 275 314 305 336 340
336 334 332 331 332 335 335 2 48 105 143 148 149 218 263 307 283 331 237 225 192 223 239 89 126 65 155 298 223 110 222 234 204 53 1 225 273 13 347 333 307 311 298 310 316
336 335 332 333 335 349 60 90 89 83 100 118 233 248 259 330 313 297 281 236 225 137 138 134 108 193 139 234 236 211 260 264 278 9 334 299 278 305 304 283 272 291 288 275 287
337 334 333 333 338 7 126 103 332 146 184 249 315 288 295 314 293 262 290 153 127 67 221 68 208 204 182 214 252 243 238 251 279 273 323 300 296 290 279 267 248 245 258 269 268
338 334 334 333 350 37 56 77 86 289 314 250 253 268 266 263 300 277 170 195 177 270 178 217 235 208 191 205 209 213 233 249 273 286 312 306 301 293 276 256 249 241 217 259 259
338 335 333 338 121 84 76 71 343 164 267 292 212 229 273 174 240 258 184 168 214 225 207 235 114 156 212 228 231 223 233 230 282 318 292 316 294 251 221 284 220 246 272 282 291
339 338 340 124 107 73 66 342 340 178 330 133 201 163 156 212 258 219 209 180 193 263 188 252 132 195 202 257 213 253 188 221 264 302 306 350 288 290 280 244 223 268 313 315 296
344 352 24 140 102 89 327 328 301 196 227 137 131 115 14 229 334 77 176 184 231 202 208 240 232 245 264 239 190 140 212 239 278 288 303 266 254 283 218 235 185 347 309 321 326
358 17 98 106 76 345 333 332 147 221 229 166 66 352 341 17 329 322 290 72 84 215 237 268 287 253 264 103 120 123 180 291 249 255 251 223 242 197 215 219 230 301 293 322 337
16 35 99 94 10 339 342 122 220 228 41 167 227 344 291 300 284 6 332 232 229 218 234 227 217 192 200 184 132 148 343 306 258 206 273 137 289 254 226 226 264 304 309 323 324
8 32 55 29 341 345 2 178 237 168 237 309 300 309 228 2 245 328 242 228 190 206 241 250 245 192 175 240 260 288 234 261 280 257 297 231 249 216 194 264 285 288 318 334 344
346 337 36 342 336 341 114 212 266 210 323 309 302 242 220 207 301 300 244 244 219 191 231 214 246 281 220 192 230 138 214 345 259 254 271 241 259 261 259 229 293 352 350 351 339
342 343 347 338 321 39 118 250 246 237 356 259 231 218 231 237 273 239 263 205 204 201 221 205 273 241 275 215 188 227 144 198 194 250 256 259 278 257 284 297 304 322 322 329 332
37 203 14 347 54 48 246 257 280 265 312 227 245 250 234 274 237 234 247 240 217 198 187 173 237 248 235 216 246 197 216 205 252 227 264 296 264 271 269 298 302 313 326 323 325
8 274 356 9 12 13 265 311 322 276 294 275 251 250 249 228 239 240 241 232 175 172 216 211 230 258 268 268 254 236 238 215 229 216 236 275 271 284 277 296 311 309 314 318 308
23 298 357 8 41 341 319 286 270 278 276 301 277 246 240 235 254 240 245 269 228 197 202 180 217 265 257 166 134 209 209 226 246 262 250 255 249 205 271 285 307 309 313 303 305
354 1 15 50 44 33 332 281 288 302 263 327 284 353 318 254 240 274 244 282 6 279 224 179 255 246 257 276 280 226 207 217 242 251 262 245 270 279 285 291 300 297 290 306 315
23 44 60 321 50 334 256 289 288 291 353 318 221 63 10 282 283 260 274 281 265 282 283 257 256 254 258 265 267 267 267 263 255 257 253 269 271 275 283 292 293 291 291 292 318
38 360 10 285 281 286 224 238 276 297 291 280 268 311 311 269 268 286 286 275 265 254 246 221 265 264 261 265 257 265 264 261 261 260 259 262 266 272 279 280 270 278 284 288 306
39 104 178 246 211 244 234 250 260 341 281 257 288 323 308 298 299 285 277 265 255 248 256 267 269 272 264 281 280 272 257 249 253 253 251 253 257 277 282 285 300 300 288 289 297